{"data":{"norad_id":65877,"intl_designator":"2025-223Z","name":"STARLINK-35462","alt_names":[],"object_type":"PAYLOAD","status":"ACTIVE","operator":null,"country":"US","launch_date":"2025-10-03","launch_site_code":"AFWTR","launch_vehicle":null,"mission":null,"orbit_class":"UNKNOWN","rcs_meters":null,"size_class":null,"mass_kg":null,"dimensions":null,"purposes":["comms"],"wikipedia_slug":null,"has_3d_model":false,"image_url":null,"decayed_at":null,"tle_current":{"epoch":"2026-09-20T22:21:09.180864Z","epoch_age_seconds":68837,"freshness":"FRESH","line1":"1 65877U 25223Z   26263.93135626  .00012910  00000+0  39243-3 0  9997","line2":"2 65877  53.1556 105.4747 0002410  70.3533 289.7729 15.34410703 54120","mean_motion":15.34410703,"eccentricity":0.000241,"inclination_deg":53.1556,"raan_deg":105.4747,"arg_perigee_deg":70.3533,"mean_anomaly_deg":289.7729,"bstar":0.00039243,"rev_number":5412,"period_min":93.847103463537,"perigee_km":461.02279398912,"apogee_km":464.32006365181,"semimajor_km":6840.8084288205,"source":"CELESTRAK","updated_at":"2026-09-21T09:00:35.753468Z"}}}